Tracking 29892 objects as of 21-Nov-2024
HD Live streaming from Space Station
objects crossing your sky now

STARLINK-30777

Track STARLINK-30777 now!
10-day predictions
STARLINK-30777 is classified as:


NORAD ID: 58233
Int'l Code: 2023-171D
Perigee: 565.4 km
Apogee: 567.1 km
Inclination: 43.0 °
Period: 95.8 minutes
Semi major axis: 6937 km
RCS: Unknown
Launch date: November 8, 2023
Source: United States (US)
Launch site: AIR FORCE EASTERN TEST RANGE (AFETR)
Your satellite tracking list
Your tracking list is empty




NASA's NSSDC Master Catalog

Two Line Element Set (TLE):
1 58233U 23171D   24325.37535585 -.00001842  00000-0 -12138-3 0  9997
2 58233  43.0033 343.5201 0001177 259.3775 100.6935 15.02529039 58371
Source of the keplerian elements: AFSPC